TimeEDT,TemperatureF,Dew PointF,Humidity,Sea Level PressureIn,VisibilityMPH,Wind Direction,Wind SpeedMPH,Gust SpeedMPH,PrecipitationIn,Events,Conditions,WindDirDegrees,DateUTC
12:15 AM,39.2,32.0,75,30.21,10.0,Calm,Calm,-,N/A,,Mostly Cloudy,0,2012-10-25 04:15:00
12:35 AM,39.2,33.8,81,30.21,10.0,Calm,Calm,-,N/A,,Overcast,0,2012-10-25 04:35:00
12:55 AM,39.2,33.8,81,30.22,10.0,Calm,Calm,-,N/A,,Overcast,0,2012-10-25 04:55:00
1:35 AM,42.8,35.6,76,30.21,10.0,Calm,Calm,-,N/A,,Overcast,0,2012-10-25 05:35:00
1:55 AM,42.8,35.6,76,30.21,10.0,Calm,Calm,-,N/A,,Overcast,0,2012-10-25 05:55:00
2:15 AM,42.8,35.6,76,30.22,10.0,Calm,Calm,-,N/A,,Overcast,0,2012-10-25 06:15:00
2:35 AM,41.0,35.6,81,30.22,10.0,Calm,Calm,-,N/A,,Overcast,0,2012-10-25 06:35:00
2:55 AM,42.8,35.6,76,30.22,10.0,Calm,Calm,-,N/A,,Overcast,0,2012-10-25 06:55:00
3:35 AM,42.8,35.6,76,30.22,10.0,Calm,Calm,-,N/A,,Mostly Cloudy,0,2012-10-25 07:35:00
3:55 AM,42.8,35.6,76,30.22,10.0,Calm,Calm,-,N/A,,Overcast,0,2012-10-25 07:55:00
4:15 AM,41.0,35.6,81,30.22,10.0,Calm,Calm,-,N/A,,Overcast,0,2012-10-25 08:15:00
4:35 AM,42.8,35.6,76,30.23,10.0,Calm,Calm,-,N/A,,Overcast,0,2012-10-25 08:35:00
4:55 AM,42.8,37.4,81,30.23,10.0,Calm,Calm,-,N/A,,Overcast,0,2012-10-25 08:55:00
5:15 AM,41.0,35.6,81,30.23,3.0,Calm,Calm,-,N/A,,Mostly Cloudy,0,2012-10-25 09:15:00
5:35 AM,42.8,35.6,76,30.24,10.0,Calm,Calm,-,N/A,,Overcast,0,2012-10-25 09:35:00
5:55 AM,42.8,35.6,76,30.24,10.0,Calm,Calm,-,N/A,,Overcast,0,2012-10-25 09:55:00
6:15 AM,42.8,35.6,76,30.24,10.0,NE,8.1,-,N/A,,Overcast,50,2012-10-25 10:15:00
6:35 AM,48.2,30.2,50,30.24,10.0,NE,8.1,-,N/A,,Overcast,50,2012-10-25 10:35:00
6:55 AM,48.2,28.4,46,30.25,10.0,NE,6.9,-,N/A,,Overcast,50,2012-10-25 10:55:00
7:35 AM,46.4,30.2,53,30.26,10.0,ENE,8.1,-,N/A,,Clear,60,2012-10-25 11:35:00
7:55 AM,46.4,32.0,57,30.27,10.0,ENE,11.5,-,N/A,,Clear,60,2012-10-25 11:55:00
8:15 AM,46.4,33.8,62,30.27,10.0,ENE,9.2,-,N/A,,Clear,60,2012-10-25 12:15:00
8:35 AM,48.2,32.0,54,30.27,10.0,ENE,8.1,-,N/A,,Clear,60,2012-10-25 12:35:00
8:55 AM,48.2,32.0,54,30.28,10.0,NE,5.8,-,N/A,,Clear,50,2012-10-25 12:55:00
9:35 AM,48.2,33.8,58,30.29,10.0,ENE,8.1,-,N/A,,Clear,70,2012-10-25 13:35:00
9:55 AM,48.2,33.8,58,30.30,10.0,ENE,11.5,-,N/A,,Clear,70,2012-10-25 13:55:00
10:15 AM,50.0,35.6,58,30.31,10.0,NE,8.1,-,N/A,,Clear,50,2012-10-25 14:15:00
10:55 AM,51.8,37.4,58,30.30,10.0,NE,6.9,-,N/A,,Clear,50,2012-10-25 14:55:00
11:35 AM,53.6,39.2,58,30.29,10.0,NE,9.2,-,N/A,,Clear,50,2012-10-25 15:35:00
11:55 AM,53.6,39.2,58,30.28,10.0,NNE,9.2,-,N/A,,Clear,30,2012-10-25 15:55:00
12:15 PM,55.4,39.2,54,30.28,10.0,NE,8.1,-,N/A,,Clear,40,2012-10-25 16:15:00
12:35 PM,55.4,39.2,54,30.27,10.0,North,6.9,-,N/A,,Clear,360,2012-10-25 16:35:00
12:55 PM,55.4,39.2,54,30.27,10.0,NNE,5.8,-,N/A,,Clear,20,2012-10-25 16:55:00
1:15 PM,57.2,39.2,51,30.26,10.0,NNE,5.8,-,N/A,,Clear,20,2012-10-25 17:15:00
1:35 PM,57.2,39.2,51,30.25,10.0,NE,8.1,-,N/A,,Clear,50,2012-10-25 17:35:00
1:55 PM,57.2,39.2,51,30.25,10.0,NE,5.8,-,N/A,,Clear,40,2012-10-25 17:55:00
2:15 PM,57.2,39.2,51,30.24,10.0,NE,6.9,-,N/A,,Clear,40,2012-10-25 18:15:00
2:35 PM,57.2,39.2,51,30.24,10.0,NE,6.9,-,N/A,,Clear,40,2012-10-25 18:35:00
2:55 PM,57.2,39.2,51,30.23,10.0,NE,4.6,-,N/A,,Clear,40,2012-10-25 18:55:00
3:15 PM,59.0,39.2,48,30.22,10.0,NNE,6.9,-,N/A,,Clear,30,2012-10-25 19:15:00
3:35 PM,59.0,39.2,48,30.22,10.0,NE,6.9,-,N/A,,Clear,40,2012-10-25 19:35:00
3:55 PM,60.8,39.2,45,30.22,10.0,NE,4.6,-,N/A,,Clear,40,2012-10-25 19:55:00
4:15 PM,59.0,39.2,48,30.22,10.0,East,4.6,-,N/A,,Clear,80,2012-10-25 20:15:00
4:35 PM,59.0,39.2,48,30.22,10.0,NNE,3.5,-,N/A,,Clear,30,2012-10-25 20:35:00
4:55 PM,59.0,39.2,48,30.22,10.0,Calm,Calm,-,N/A,,Clear,0,2012-10-25 20:55:00
5:15 PM,60.8,39.2,45,30.23,10.0,NNW,3.5,-,N/A,,Clear,330,2012-10-25 21:15:00
5:35 PM,57.2,41.0,55,30.23,9.0,Calm,Calm,-,N/A,,Clear,0,2012-10-25 21:35:00
5:55 PM,55.4,42.8,63,30.22,10.0,North,-9999.0,-,N/A,,Clear,0,2012-10-25 21:55:00
6:15 PM,53.6,41.0,62,30.22,10.0,WNW,3.5,-,N/A,,Clear,300,2012-10-25 22:15:00
6:35 PM,51.8,41.0,67,30.23,10.0,Calm,Calm,-,N/A,,Clear,0,2012-10-25 22:35:00
6:55 PM,50.0,39.2,66,30.23,10.0,Calm,Calm,-,N/A,,Clear,0,2012-10-25 22:55:00
7:15 PM,50.0,39.2,66,30.23,10.0,North,-9999.0,-,N/A,,Clear,0,2012-10-25 23:15:00
7:35 PM,48.2,39.2,71,30.24,10.0,Calm,Calm,-,N/A,,Clear,0,2012-10-25 23:35:00
7:55 PM,48.2,39.2,71,30.24,10.0,Calm,Calm,-,N/A,,Clear,0,2012-10-25 23:55:00
8:15 PM,48.2,39.2,71,30.25,10.0,Calm,Calm,-,N/A,,Clear,0,2012-10-26 00:15:00
8:35 PM,46.4,39.2,76,30.25,10.0,NW,3.5,-,N/A,,Clear,310,2012-10-26 00:35:00
8:55 PM,46.4,39.2,76,30.25,10.0,Calm,Calm,-,N/A,,Clear,0,2012-10-26 00:55:00
9:15 PM,46.4,39.2,76,30.25,10.0,Calm,Calm,-,N/A,,Scattered Clouds,0,2012-10-26 01:15:00
9:35 PM,46.4,39.2,76,30.26,10.0,Calm,Calm,-,N/A,,Overcast,0,2012-10-26 01:35:00
9:55 PM,46.4,39.2,76,30.26,10.0,Calm,Calm,-,N/A,,Mostly Cloudy,0,2012-10-26 01:55:00
10:15 PM,44.6,39.2,81,30.26,10.0,Calm,Calm,-,N/A,,Mostly Cloudy,0,2012-10-26 02:15:00
10:35 PM,44.6,39.2,81,30.25,10.0,Calm,Calm,-,N/A,,Overcast,0,2012-10-26 02:35:00
10:55 PM,44.6,41.0,87,30.24,10.0,Calm,Calm,-,N/A,,Mostly Cloudy,0,2012-10-26 02:55:00
11:15 PM,44.6,39.2,81,30.25,10.0,Calm,Calm,-,N/A,,Partly Cloudy,0,2012-10-26 03:15:00
11:35 PM,44.6,39.2,81,30.24,10.0,Calm,Calm,-,N/A,,Mostly Cloudy,0,2012-10-26 03:35:00
11:55 PM,46.4,41.0,81,30.24,10.0,Calm,Calm,-,N/A,,Overcast,0,2012-10-26 03:55:00